Zurück zum Katalog

FENGYUN 1C DEB

AktivPO
NORAD 33688·DEBRIS·🇨🇳 China

Gestartet May 10, 1999 von Taiyuan Satellite Launch Center

Loading…

Nächste Überflüge (nächste 24 Stunden)

TLE

AktuellSource: Space-Track

Epoche: Sep 12, 2026, 08:13 UTC

1 33688U 99025DFZ 26255.34293056  .00005837  00000-0  14844-2 0  9991
2 33688  99.3608  30.7914 0050030 173.8850 186.2963 14.50382556954427

Verfolge FENGYUN 1C DEB in Echtzeit mit AllMySat

Download on the App Store